Location: Keppel Henge
(44.7900°N, 80.9447°W)
Time: 05:32:23
(UTC-05:00)

Envisat - Pass Details

Date: 07 October 2017
Orbit: 764 x 766 km, 98.2° (Epoch: 11 December)

Event Time Altitude Azimuth Distance (km) Brightness Sun altitude
Exits shadow 19:38:12 11° 93° (E) 2,233 4.7 -8.9°
Maximum altitude 19:40:55 16° 59° (ENE) 1,910 4.6 -9.4°
Drops below altitude 10° 19:43:59 10° 22° (NNE) 2,314 5.3 -9.9°
Sets 19:47:06 0° 2° (N) 3,246 6.3 -10.5°
